Regional Weather Roundup
Issued by NWS

Home | Current Version | Previous Version | Text Only | Print | Product List | Glossary Off
Versions: 1 2 3 4 5 6 7 8 9 10 11 12 13 14 15 16 17 18 19 20 21 22 23 24 25 26 27 28 29 30 31 32 33 34 35 36 37 38 39 40 41 42 43 44 45 46 47 48 49 50

000
ASUS45 KABQ 101101
RWRNM
NEW MEXICO REGIONAL WEATHER ROUNDUP
NATIONAL WEATHER SERVICE ALBUQUERQUE NM
400 AM MST WED FEB 10 2016

NOTE: "FAIR" MEANS FEW OR NO CLOUDS BELOW 12,000 FEET AGL WITH NO
       SIGNIFICANT WEATHER OR OBSTRUCTIONS TO VISION.

      THIS PRODUCT IS RELEASED AS TWO VERSIONS.  ONE VERSION NEAR
      THE TOP OF THE HOUR CONTAINING PRELIMINARY DATA FROM ALBUQUERQUE
      AND OTHER STATIONS.  A FINAL VERSION WITH ADDITIONAL DATA IS
      ISSUED ABOUT 10 MINUTES AFTER THE HOUR.

NMZ501-503-504-510>518-101200-
NORTHWEST PLATEAU/NORTHCENTRAL MOUNTAINS

CITY           SKY/WX    TMP DP  RH WIND       PRES   REMARKS
FARMINGTON     CLOUDY    25  20  81 E7        30.42F WCI  17
SANTA FE       CLOUDY    29  17  61 N15       30.38F WCI  18
TAOS           CLOUDY    19  14  79 N6        30.42F WCI  11
ANGEL FIRE     FAIR      -1  -4  87 CALM      30.46S

$$
NMZ402-403-502-505>509-101200-
WESTCENTRAL MOUNTAINS/SOUTHWEST MOUNTAINS

CITY           SKY/WX    TMP DP  RH WIND       PRES   REMARKS
GALLUP         CLEAR     20  17  88 CALM      30.43S
GRANTS         CLEAR     16  12  87 NW7       30.45S WCI   6
SILVER CITY      N/A     32  19  59 N12       30.39F WCI  23

$$
NMZ407-409-411-412-101200-
SOUTHERN DESERTS

CITY           SKY/WX    TMP DP  RH WIND       PRES   REMARKS
DEMING         CLEAR     29  16  58 W7        30.35S WCI  22
ALAMOGORDO     CLOUDY    32  16  51 CALM      30.36S
T OR C         CLEAR     35  18  49 NW7       30.36F WCI  29

$$
NMZ519>523-101200-
CENTRAL VALLEYS/CENTRAL HIGHLANDS

CITY           SKY/WX    TMP DP  RH WIND       PRES   REMARKS
ALBUQUERQUE    CLOUDY    35  21  56 N6        30.39F WCI  30
DOUBLE EAGLE   CLOUDY    24  15  69 CALM      30.40S
MORIARTY ARPT  FAIR      18  14  86 N5        30.40F WCI  11
CLINES CORNERS CLOUDY    30  19  63 W13       30.36F WCI  20
BELEN          FAIR      28  14  57 N7        30.40S WCI  20
SOCORRO        NOT AVBL

$$
NMZ524>526-539-540-101200-
SOUTHCENTRAL MOUNTAINS

CITY           SKY/WX    TMP DP  RH WIND       PRES   REMARKS
RUIDOSO          N/A     36  14  41 W3        30.41S

$$
NMZ527>531-101200-
NORTHEAST HIGHLANDS/NORTHEAST PLAINS

CITY           SKY/WX    TMP DP  RH WIND       PRES   REMARKS
LAS VEGAS      CLOUDY    36  16  44 N6        30.34F WCI  31
RATON          CLOUDY    21  14  74 NE7       30.31F WCI  12
CLAYTON        CLOUDY    40  18  41 W14       30.23F WCI  32

$$
NMZ532>537-101200-
EASTCENTRAL PLAINS

CITY           SKY/WX    TMP DP  RH WIND       PRES   REMARKS
TUCUMCARI      CLOUDY    31  18  58 W6        30.28F WCI  25
CANNON AFB     NOT AVBL
CLOVIS AIRPORT CLOUDY    30  18  59 W10       30.31F WCI  21

$$
NMZ028-029-538-101200-
SOUTHEAST PLAINS

CITY           SKY/WX    TMP DP  RH WIND       PRES   REMARKS
ROSWELL        CLOUDY    31  18  58 N6        30.33F WCI  25
ARTESIA        CLOUDY    28  21  74 N5        30.34F WCI  23
CARLSBAD       CLOUDY    30  21  69 N5        30.33S WCI  25
HOBBS          CLOUDY    32  19  59 W9        30.33F WCI  24


$$



USA.gov is the U.S. government's official web portal to all federal, state and local government web resources and services.